CZ-6A DEB, 60636

Orbit data source: Space-Track

CZ-6A DEB, 60636 is space debris in LEO originally from a launch on Tue, 06 Aug 2024 UTC launched from the Taiyaun Space Center, China (TSC). Debris objects in space refer to the collection of defunct objects orbiting the Earth. Examples of debris include non-operational satellites, rocket bodies, and fragments generated from explosions, collisions, or faulty payload assembly.

Loading next visibility...
Identifier
60636, 2024-140AM
Orbit
LEO
Country
Flag of CNCN / PRC
Related business
Manufacturer
SAST
Mission
Spacecraft
Bus & Motor
Unknown
Mass
Unknown
Launch date (UTC)
2024-08-06 (2 years ago)
Launch vehicle
Unknown
Launch site
Taiyaun Space Center, China (TSC)
Object type
Payload
Rocket body
Debris
Shape & HBR
Unknown shape, 0.4 m
Radar Cross Section
Medium (>0.1 m² and <1 m²)

Expand to show TLE details & history
Last TLE update: 13 hours ago

TLE from 13 hours ago
0 CZ-6A DEB
1 60636U 24140AM  26171.31996507  .00000542  00000-0  24887-3 0  9992
2 60636  88.9966 274.1154 0050559 173.4886 186.6972 14.19151721 96550
Epoch: 2026-06-20T07:40Z
TLE epoch observation values (Epoch: 2026-06-20T07:40:44.982Z)
Latitude
-0.00001°
Longitude
-109.60831°
Altitude
867.471 km
Speed
7.4 km/s
True Right ascension
18h 16m 27s
True Declination
0° 00' 00"
Sunlit
Object was in full shadow at epoch
Visualization orbit readout
Latitude
Unknown
Longitude
Unknown
Altitude
Unknown
Speed
Unknown
Apparent Right ascension
Unknown
Apparent Declination
Unknown
Sunlit
N/A
Visualization observer readout
Local Sidereal Time
07:22:01
Azimuth
Unknown
Elevation
Unknown
Doppler factor
Unknown
Orbital elements
Apogee altitude
861.595 km
Perigee altitude
788.756 km
Semi-major axis
7,203.312 km
Eccentricity
0.00506
Inclination
88.9966°
RAAN
274.1154°
Arg. of periapsis
173.4886°
True anomaly
186.63005°
Mean anomaly
186.6972°
Eccentric anomaly
186.66359°
Mean motion
3.55013 °/min
Orbital period
101.4 mins
BSTAR
0.00024887
Loading maneuver chart data...
Computing Atmospheric mass density...
Loading historical data...
Loading historical data...
Loading historical data...
Loading historical data...
Loading historical data...
Loading historical data...
Loading historical data...

Documentation

Showing up to 5 results
|